Location: Newark
(49.2842°N, 3.4494°E)
Time: 05:52:15
(UTC+00:00)

ISS - Visible Passes

Search period start: 18 September 2019 00:00
Search period end: 28 September 2019 00:00
Orbit: 411 x 421 km, 51.6° (Epoch: 18 September)

Date Brightness Start Highest point End Pass type
(mag) Time Alt. Az. Time Alt. Az. Time Alt. Az.
19 Sep -1.1 20:11:47 10° SW 20:12:12 13° SW 20:12:12 13° SW visible
20 Sep -2.9 19:23:35 10° SSW 19:26:18 31° SSE 19:26:18 31° SSE visible
21 Sep -2.4 18:35:36 10° SSW 18:38:14 22° SE 18:40:09 14° E visible
21 Sep -2.1 20:11:19 10° WSW 20:13:05 29° WSW 20:13:05 29° WSW visible
22 Sep -3.8 19:22:52 10° WSW 19:26:09 65° SSE 19:26:46 51° E visible
22 Sep -0.4 20:59:40 10° W 20:59:40 10° W 20:59:40 10° W visible
23 Sep -3.4 18:34:29 10° SW 18:37:40 45° SSE 18:40:20 14° E visible
23 Sep -2.2 20:11:04 10° W 20:13:13 36° WNW 20:13:13 36° WNW visible
24 Sep -3.7 19:22:28 10° WSW 19:25:48 75° NNW 19:26:40 45° ENE visible
24 Sep -0.3 20:59:27 10° WNW 20:59:34 11° WNW 20:59:34 11° WNW visible
25 Sep -3.8 18:33:54 10° WSW 18:37:14 85° SSE 18:40:02 14° ENE visible
25 Sep -2.0 20:10:51 10° W 20:12:55 33° WNW 20:12:55 33° WNW visible
26 Sep -3.4 19:22:12 10° W 19:25:30 57° N 19:26:13 44° NE visible
27 Sep -3.5 18:33:33 10° W 18:36:51 64° NNW 18:39:29 15° ENE visible
27 Sep -1.8 20:10:31 10° WNW 20:12:22 29° WNW 20:12:22 29° WNW visible
